Regional Weather Roundup
Issued by NWS

Home | Current Version | Previous Version | Text Only | Print | Product List | Glossary On
Versions: 1 2 3 4 5 6 7 8 9 10 11 12 13 14 15 16 17 18 19 20 21 22 23 24 25 26 27 28 29 30 31 32 33 34 35 36 37 38 39 40 41 42 43 44 45 46 47 48 49 50
000
ASCA44 KEWX 261920
RWRMX

LATIN AMERICA AND CARIBBEAN REGIONAL WEATHER ROUNDUP
NATIONAL WEATHER SERVICE AUSTIN/SAN ANTONIO TX
200 PM CDT TUE SEP 26 2017

NOTE: "FAIR" INDICATED FEW OR NO CLOUDS BELOW 12,000 FEET WITH NO
SIGNIFICANT WEATHER AND/OR OBSTRUCTIONS TO VISIBILITY.

BAJA CALIFORNIA

CITY           SKY/WX    TMP DP  RH WIND       PRES   REMARKS
LORETO         MOSUNNY   84  72  65 NE14      29.76F
LA PAZ         PTSUNNY   82  61  47 NW6       29.80S
MEXICALI       SUNNY     88  21   8 N8        29.79F
S.J. DEL CABO  DRZL/FOG  79  70  73 NW7       29.79R VSB 1
TIJUANA        MOSUNNY   81  30  16 CALM      29.85F

NORTHWESTERN MEXICO

CITY           SKY/WX    TMP DP  RH WIND       PRES   REMARKS
CULIACAN       PTSUNNY   86  70  58 N6        29.75F HX  90
DURANGO        MOSUNNY   72  57  60 E5        30.05F
GUAYMAS        SUNNY     90  50  25 CALM      29.73F
HERMOSILLO     SUNNY     88  37  16 CALM      29.83F
CD. JUAREZ     MOSUNNY   79  52  38 NE14      29.97F
LOS MOCHIS     SUNNY     90  50  25 SW7       29.77F
OBREGON        SUNNY     88  43  20 W3        29.75F

NORTHEASTERN MEXICO

CITY           SKY/WX    TMP DP  RH WIND       PRES   REMARKS
CHIHUAHUA      PTSUNNY   81  55  41 E3        29.96F
MATAMOROS      PTSUNNY   93  75  55 SE14G25   29.78F HX 104
MONCLOVA       PTSUNNY   79  63  57 N12       29.84F
MONTERREY      CLOUDY    82  70  65 E6        29.80F
NUEVO LAREDO   CLOUDY    77  75  94 SW6       29.78F
PIEDRAS NEGRAS   N/A    N/A N/A N/A MISG        N/A
REYNOSA        PTSUNNY   86  72  62 SE14G25   29.78F HX  92
SALTILLO       PTSUNNY   73  63  68 NE9       30.03F
TORREON        PTSUNNY   86  64  48 CALM      29.89F
CD. VICTORIA   PTSUNNY   90  68  48 MISG      29.77F HX  93

WESTERN MEXICO

CITY           SKY/WX    TMP DP  RH WIND       PRES   REMARKS
AGUASCALIENTES PTSUNNY   72  57  60 SW5       30.11F
COLIMA         PTSUNNY   77  72  83 SW9       29.91F
DEL BAJIO      PTSUNNY   75  63  64 S6        30.13F
GUADALAJARA    PTSUNNY   77  55  47 S5        30.01F
MANZANILLO     MOSUNNY   88  73  62 SW14      29.75F HX  96
MAZATLAN       PTSUNNY   86  73  66 S7        29.77F HX  93
P. VALLARTA    PTSUNNY   82  73  74 W7        29.77F
URUAPAN        CLOUDY    72  64  78 S12       30.04F
ZACATECAS      PTSUNNY   73  55  53 SW6       30.11F

CENTRAL MEXICO

CITY           SKY/WX    TMP DP  RH WIND       PRES   REMARKS
CUERNAVACA     PTSUNNY   79  66  65 S7        29.97F
MEXICO CITY    PTSUNNY   73  54  49 NE5       30.16F
MORELIA        PTSUNNY   75  59  57 NW5       30.06F
POZA RICA      PTSUNNY   90  77  66 SE7       29.80F HX 102
PUEBLA         PTSUNNY   73  52  46 NE6       30.16F
QUERETARO      PTSUNNY   73  59  60 E3        30.13F
S. LUIS POTOSI CLOUDY    75  57  53 NW3       30.08F
TAMPICO        PTSUNNY   86  79  79 E9        29.75F HX  99
TOLUCA         PTSUNNY   72  57  60 SE9       30.20F

SOUTHERN MEXICO

CITY           SKY/WX    TMP DP  RH WIND       PRES   REMARKS
ACAPULCO       PTSUNNY   88  75  66 SW9       29.78F HX  97
B. DE HUATULCO CLOUDY   N/A N/A N/A SW8       29.79F
OAXACA         PTSUNNY   77  59  53 NE5       30.04F
P. ESCONDIDO   PTSUNNY   86  73  66 W12       29.85F HX  93
VERACRUZ       MOSUNNY   88  77  70 E7        29.73F HX 100
ZIHUATANEJO    MOSUNNY   90  72  55 SW6       29.76F HX  96

YUCATAN PENINSULA

CITY           SKY/WX    TMP DP  RH WIND       PRES   REMARKS
CAMPECHE       MOSUNNY   86  77  74 CALM      29.71F HX  97
CANCUN         PTSUNNY   86  79  79 E13       29.80F HX  99
CHETUMAL       MOSUNNY   90  79  70 SE21      29.74F HX 105
CD. DEL CARMEN MOSUNNY  N/A N/A N/A SE5       29.72F
COZUMEL        PTSUNNY   90  79  70 SE9       29.77F HX 105
MERIDA         PTSUNNY   91  75  59 E7        29.76F HX 102
MINATITLAN     MOSUNNY   90  81  74 S6        29.70F HX 108
TAPACHULA      PTSUNNY   82  75  78 SE7       29.78F
TUX. GUTIERREZ PTSUNNY   84  70  61 CALM      29.78F
VILLAHERMOSA   PTSUNNY   90  77  66 E8        29.73F HX 102

CENTRAL AMERICA

CITY           SKY/WX    TMP DP  RH WIND       PRES   REMARKS
BELIZE CITY    MOSUNNY   91  79  66 SE6       29.72F HX 107
MANAGUA        PTCLDY    88  75  66 NW7       29.74F THUNDER HX  97

CARIBBEAN

CITY           SKY/WX    TMP DP  RH WIND       PRES   REMARKS
ARUBA          MOSUNNY   90  77  66 E20       29.80F HX 102
KINGSTON       PTSUNNY   82  77  83 SE10      29.86S HX  91
NASSAU         TSTM      79  77  94 CALM      29.93
SAN JUAN       MOSUNNY   88  81  79 E10       29.93F HX 105
SANTO DOMINGO  MOSUNNY   88  77  70 SE7       29.92F HX 100
ST. KITTS      MOSUNNY   86  77  74 E10       29.94F HX  97
ST. MAARTEN    MOSUNNY  N/A N/A N/A E7        29.92S

$$




USA.gov is the U.S. government's official web portal to all federal, state and local government web resources and services.